Weather History for Palm Springs, CA

Change the Weather History Date:

Sunday, September 15, 2013

  Actual Average Record
Temperature  
Mean Temperature 94 °F 87 °F  
Max Temperature 109 °F 101 °F 116 °F (1929)
Min Temperature 79 °F 73 °F 53 °F (1927)
Degree Days  
Heating Degree Days 0 0  
Month to date heating degree days 0 0  
Since 1 July heating degree days 0 0  
Cooling Degree Days 29 22  
Month to date cooling degree days 412 357  
Year to date cooling degree days 3908 3441  
Growing Degree Days 45 (Base 50)    
Moisture  
Dew Point 46 °F    
Average Humidity 24    
Maximum Humidity 36    
Minimum Humidity 11    
Precipitation  
Precipitation 0.00 in 0.01 in 0.04 in (1997)
Month to date precipitation 0.03 0.25  
Year to date precipitation 2.05 3.78  
Since 1 July precipitation 1.08 0.84  
Snow  
Snow 0.00 in - - ()
Month to date snowfall 0.0  
Year to date snowfall 0.0  
Since 1 July snowfall 0.0  
Snow Depth 0.00 in    
Sea Level Pressure  
Sea Level Pressure 29.66 in    
Wind  
Wind Speed 7 mph (North)    
Max Wind Speed 18 mph    
Max Gust Speed 23 mph    
Visibility 10 miles    
Events      
T = Trace of Precipitation, MM = Missing Value Source: NWS Daily Summary

Daily Weather History Graph

Daily Weather History Graph

Search for Another Location

Airport:

Trip Planner

Search our weather history database for the weather conditions in past years. The results will help you decide how hot, cold, wet, or windy it might be!

Date:

Astronomy

Sep. 15, 2013 Rise Set
Actual Time 6:29 AM PDT 6:52 PM PDT
Civil Twilight 6:04 AM PDT 7:17 PM PDT
Nautical Twilight 5:35 AM PDT 7:46 PM PDT
Astronomical Twilight 5:05 AM PDT 8:15 PM PDT
Moon 4:14 PM PDT (9/15) 2:21 AM PDT (9/15)
Length of Visible Light 13h 12m
Length of Day
12h 22m
Waxing Gibbous, 83% of the Moon is Illuminated
Sep 15
Waxing Gibbous
Sep 19
Full
Sep 26
Last Quarter
Oct 4
New
Oct 11
First Quarter

Hourly Weather History & Observations

Time (PDT) Temp. Dew Point Humidity Pressure Visibility Wind Dir Wind Speed Gust Speed Precip Events Conditions
12:53 AM 90.0 °F 48.0 °F 24% 29.62 in 10.0 mi WNW 3.5 mph - N/A   Clear
1:53 AM 88.0 °F 48.9 °F 26% 29.63 in 10.0 mi NW 3.5 mph - N/A   Clear
2:53 AM 86.0 °F 48.0 °F 27% 29.63 in 10.0 mi WNW 5.8 mph - N/A   Clear
3:53 AM 84.9 °F 46.0 °F 26% 29.64 in 10.0 mi North 8.1 mph - N/A   Clear
4:53 AM 81.0 °F 52.0 °F 36% 29.65 in 10.0 mi WNW 3.5 mph - N/A   Clear
5:53 AM 86.0 °F 46.9 °F 26% 29.66 in 10.0 mi NNW 9.2 mph - N/A   Clear
6:53 AM 84.0 °F 46.9 °F 27% 29.68 in 10.0 mi NNW 6.9 mph - N/A   Clear
7:53 AM 88.0 °F 46.9 °F 24% 29.69 in 10.0 mi NW 5.8 mph - N/A   Clear
8:53 AM 93.0 °F 46.9 °F 20% 29.70 in 10.0 mi SSW 3.5 mph - N/A   Clear
9:53 AM 97.0 °F 45.0 °F 17% 29.70 in 10.0 mi Calm Calm - N/A   Clear
10:53 AM 102.0 °F 44.1 °F 14% 29.70 in 10.0 mi Variable 3.5 mph - N/A   Partly Cloudy
11:53 AM 104.0 °F 41.0 °F 12% 29.69 in 10.0 mi SSE 5.8 mph - N/A   Scattered Clouds
12:53 PM 107.1 °F 44.1 °F 12% 29.67 in 10.0 mi SE 11.5 mph - N/A   Clear
1:53 PM 109.0 °F 45.0 °F 12% 29.65 in 10.0 mi SE 13.8 mph - N/A   Scattered Clouds
2:53 PM 108.0 °F 45.0 °F 12% 29.64 in 10.0 mi ESE 15.0 mph - N/A   Clear
3:53 PM 108.0 °F 45.0 °F 12% 29.62 in 10.0 mi ESE 15.0 mph - N/A   Scattered Clouds
4:53 PM 107.1 °F 41.0 °F 11% 29.62 in 10.0 mi East 12.7 mph - N/A   Clear
5:53 PM 105.1 °F 41.0 °F 11% 29.62 in 10.0 mi ESE 9.2 mph - N/A   Clear
6:53 PM 102.9 °F 43.0 °F 13% 29.63 in 10.0 mi East 3.5 mph - N/A   Clear
7:53 PM 100.9 °F 45.0 °F 15% 29.65 in 10.0 mi North 9.2 mph 18.4 mph N/A   Clear
8:53 PM 97.0 °F 46.9 °F 18% 29.67 in 10.0 mi WNW 4.6 mph - N/A   Clear
9:53 PM 93.0 °F 48.0 °F 21% 29.69 in 10.0 mi Calm Calm - N/A   Clear
10:53 PM 91.9 °F 45.0 °F 20% 29.69 in 10.0 mi Variable 3.5 mph - N/A   Clear
11:53 PM 88.0 °F 48.9 °F 26% 29.70 in 10.0 mi Calm Calm - N/A   Clear